STARLINK-34477

Last updated on Thu Jul 03 2025 00:02:07 GMT+0000 (Coordinated Universal Time)

1 64487U 25133R 25183.58335648 -.01210036 00000+0 -59395-2 0 9991 2 64487 53.1553 210.7822 0000761 63.3455 307.6563 15.84043328 2724
UTC large
Height (km)
Speed (km/s)
/
Latitude / Longitude
Inclination (degrees)
Orbital Period (minutes)
Azimuth
Elevation
Range (km)
Doppler Factor

Next 0 passes for location: London (51.5072 / 0.1276)

Sorry there are no passes over London.